This demonstration page uses our WeatherBlox Daily Observations layout. Learn more.

38.88101, -77.10428

Hourly Observations for August 6, 2018

Temp ( °F °C ) Dew Point ( °F °C ) Humidity (%) Winds ( mph kmh ) Pressure ( in mb ) Visibility ( mi km ) Precip ( " mm )
12:52 am 00:52 Partly Cloudy 77 25 71 21.7 82 82 S 6 9 30.15 1021 10 16.0934 0 0
1:52 am 01:52 Partly Cloudy 76 24.4 71 21.7 85 85 S 7 11 30.14 1021 10 16.0934 0 0
2:52 am 02:52 Partly Cloudy 76 24.4 70 21.1 82 82 S 6 9 30.14 1021 10 16.0934 0 0
3:52 am 03:52 Mostly Clear 75 23.9 71 21.7 88 88 S 5 7 30.13 1020 10 16.0934 0 0
4:52 am 04:52 Mostly Cloudy 75 23.9 71 21.7 88 88 S 5 7 30.12 1020 10 16.0934 0 0
5:52 am 05:52 Partly Cloudy 75 23.9 71 21.7 88 88 S 5 7 30.13 1020 10 16.0934 0 0
6:52 am 06:52 Mostly Sunny 75 23.9 71 21.7 88 88 S 3 6 30.13 1020 10 16.0934 0 0
7:52 am 07:52 Mostly Sunny 77 25 71 21.7 82 82 S 5 7 30.13 1020 10 16.0934 0 0
8:52 am 08:52 Mostly Sunny 78 25.6 72 22.2 82 82 SSE 5 7 30.13 1020 10 16.0934 0 0
9:52 am 09:52 Mostly Sunny 81 27.2 73 22.8 77 77 SE 5 7 30.13 1020 10 16.0934 0 0
10:52 am 10:52 Partly Cloudy 85 29.4 72 22.2 65 65 E 3 6 30.12 1020 10 16.0934 0 0
11:52 am 11:52 Partly Cloudy 88 31.1 73 22.8 61 61 S 5 7 30.11 1020 10 16.0934 0 0
12:52 pm 12:52 Mostly Cloudy 89 31.7 73 22.8 59 59 SSE 6 9 30.11 1020 10 16.0934 0 0
1:35 pm 13:35 Mostly Cloudy 88 31.1 72 22.2 59 59 S 8 13 30.09 1019 10 16.0934 0 0
1:52 pm 13:52 Mostly Cloudy 90 32.2 73 22.8 58 58 S 9 15 30.09 1019 10 16.0934 0 0
2:52 pm 14:52 Mostly Cloudy with Nearby Thunderstorms 88 31.1 72 22.2 59 59 S 13 20 30.06 1018 10 16.0934 0 0
3:00 pm 15:00 Mostly Cloudy with Thunderstorms 86 30 72 22.2 63 63 S 12 19 30.06 1018 10 16.0934 0 0
3:14 pm 15:14 Mostly Cloudy with Light Thunderstorms 85 29.4 72 22.2 65 65 SSW 8 13 30.06 1018 8 12.87472 0 0.0254
3:17 pm 15:17 Mostly Cloudy with Light Thunderstorms 84 28.9 72 22.2 67 67 WSW 8 13 30.06 1018 6 9.65604 0.01 0.254
3:49 pm 15:49 Mostly Cloudy with Nearby Thunderstorms 82 28 70 21 66 66 W 8 13 30.06 1018 10 16.0934 0.04 1.016
3:52 pm 15:52 Mostly Cloudy with Nearby Thunderstorms 83 28.3 70 21.1 65 65 W 8 13 30.06 1018 10 16.0934 0.04 1.016
4:00 pm 16:00 Partly Cloudy 83 28.3 70 21.1 65 65 SSW 7 11 30.06 1018 10 16.0934 0 0
4:52 pm 16:52 Mostly Cloudy 87 30.6 72 22.2 61 61 E 3 6 30.04 1017 10 16.0934 0 0
5:52 pm 17:52 Partly Cloudy 88 31.1 72 22.2 59 59 Calm 30.03 1017 10 16.0934 0 0
6:52 pm 18:52 Partly Cloudy 85 29.4 73 22.8 68 68 SE 5 7 30.04 1017 10 16.0934 0 0
7:52 pm 19:52 Mostly Cloudy 85 29.4 73 22.8 68 68 SSW 5 7 30.04 1017 10 16.0934 0 0
8:28 pm 20:28 Mostly Cloudy with Light Rain 84 28.9 74 23.3 72 72 W 16 26 30.06 1018 6 9.65604 0 0.0254
8:33 pm 20:33 Cloudy with Heavy Rain 81 27.2 74 23.3 79 79 WNW 13 20 30.06 1018 4 6.43736 0.01 0.254
8:52 pm 20:52 Cloudy with Heavy Rain 81 27.2 68 20 65 65 S 5 7 30.05 1018 4 6.43736 0.11 2.794
9:15 pm 21:15 Partly Cloudy 78 25.6 71 21.7 79 79 Calm 30.06 1018 10 16.0934 0.03 0.762
9:52 pm 21:52 Partly Cloudy 79 26.1 74 23.3 85 85 SW 3 6 30.07 1018 10 16.0934 0.03 0.762
10:52 pm 22:52 Mostly Clear 79 26.1 74 23.3 85 85 SSW 8 13 30.06 1018 10 16.0934 0 0
11:52 pm 23:52 Partly Cloudy 79 26.1 74 23.3 85 85 S 8 13 30.04 1017 10 16.0934 0 0

Powered by AerisWeather